Time,TemperatureF,DewpointF,PressureIn,WindDirection,WindDirectionDegrees,WindSpeedMPH,WindSpeedGustMPH,Humidity,HourlyPrecipIn,Conditions,Clouds,dailyrainin,SoftwareType,DateUTC
2013-10-08 00:01:00,55.6,53.2,29.68,North,349,1.0,13.0,92,0.02,,,0.25,meteohub,2013-10-08 04:01:00,
2013-10-08 00:02:00,55.6,53.2,29.68,North,355,0.0,13.0,92,0.02,,,0.25,meteohub,2013-10-08 04:02:00,
2013-10-08 00:06:00,55.2,52.9,29.68,North,5,0.0,13.0,92,0.02,,,0.25,meteohub,2013-10-08 04:06:00,
2013-10-08 00:07:00,55.2,52.9,29.68,West,278,4.0,13.0,92,0.02,,,0.25,meteohub,2013-10-08 04:07:00,
2013-10-08 00:12:00,55.0,52.7,29.67,NNW,333,0.0,6.0,92,0.03,,,0.26,meteohub,2013-10-08 04:12:00,
2013-10-08 00:17:00,54.9,52.5,29.68,WNW,294,0.0,6.0,92,0.03,,,0.26,meteohub,2013-10-08 04:17:00,
2013-10-08 00:22:00,54.7,52.7,29.68,South,182,0.0,6.0,93,0.04,,,0.27,meteohub,2013-10-08 04:22:00,
2013-10-08 00:27:00,54.7,52.7,29.68,South,182,0.0,5.0,93,0.04,,,0.27,meteohub,2013-10-08 04:27:00,
2013-10-08 00:32:00,54.7,52.7,29.68,SW,223,2.0,3.0,93,0.04,,,0.27,meteohub,2013-10-08 04:32:00,
2013-10-08 00:35:00,54.7,52.7,29.68,WSW,250,0.0,5.0,93,0.04,,,0.27,meteohub,2013-10-08 04:35:00,
2013-10-08 00:40:00,54.5,52.0,29.69,West,278,6.0,9.0,91,0.04,,,0.27,meteohub,2013-10-08 04:40:00,
2013-10-08 00:45:00,54.7,51.8,29.69,SW,219,2.0,10.0,90,0.03,,,0.27,meteohub,2013-10-08 04:45:00,
2013-10-08 00:50:00,54.3,50.9,29.69,WNW,290,0.0,10.0,88,0.03,,,0.27,meteohub,2013-10-08 04:50:00,
2013-10-08 00:55:00,54.3,50.9,29.70,SW,219,4.0,13.0,88,0.02,,,0.27,meteohub,2013-10-08 04:55:00,
2013-10-08 01:00:00,54.1,50.9,29.70,WSW,241,1.0,13.0,89,0.02,,,0.27,meteohub,2013-10-08 05:00:00,
2013-10-08 01:05:00,53.8,50.5,29.70,SW,216,2.0,13.0,89,0.01,,,0.27,meteohub,2013-10-08 05:05:00,
2013-10-08 01:11:00,53.8,50.5,29.70,WSW,244,1.0,11.0,89,0.01,,,0.27,meteohub,2013-10-08 05:11:00,
2013-10-08 01:16:00,53.4,50.2,29.71,SW,217,1.0,10.0,89,0.00,,,0.27,meteohub,2013-10-08 05:16:00,
2013-10-08 01:21:00,53.4,50.2,29.71,SW,223,4.0,10.0,89,0.00,,,0.27,meteohub,2013-10-08 05:21:00,
2013-10-08 01:26:00,53.4,50.2,29.71,WNW,290,0.0,10.0,89,0.00,,,0.27,meteohub,2013-10-08 05:26:00,
2013-10-08 01:31:00,53.2,50.0,29.71,SSW,202,0.0,6.0,89,0.00,,,0.27,meteohub,2013-10-08 05:31:00,
2013-10-08 01:36:00,53.2,50.0,29.70,SSE,157,1.0,6.0,89,0.00,,,0.27,meteohub,2013-10-08 05:36:00,
2013-10-08 01:41:00,53.2,50.0,29.71,NNE,15,0.0,4.0,89,0.00,,,0.27,meteohub,2013-10-08 05:41:00,
2013-10-08 01:46:00,53.1,49.8,29.71,South,188,0.0,8.0,89,0.00,,,0.27,meteohub,2013-10-08 05:46:00,
2013-10-08 01:52:00,53.2,49.8,29.71,West,267,2.0,8.0,88,0.00,,,0.27,meteohub,2013-10-08 05:52:00,
2013-10-08 01:57:00,53.2,49.8,29.71,South,187,1.0,8.0,88,0.00,,,0.27,meteohub,2013-10-08 05:57:00,
2013-10-08 02:02:00,53.2,50.0,29.71,SW,233,0.0,7.0,89,0.00,,,0.27,meteohub,2013-10-08 06:02:00,
2013-10-08 02:07:00,53.2,49.8,29.71,SW,218,2.0,7.0,88,0.00,,,0.27,meteohub,2013-10-08 06:07:00,
2013-10-08 02:12:00,53.2,49.5,29.71,South,178,1.0,7.0,87,0.00,,,0.27,meteohub,2013-10-08 06:12:00,
2013-10-08 02:17:00,53.2,49.5,29.72,North,355,4.0,7.0,87,0.00,,,0.27,meteohub,2013-10-08 06:17:00,
2013-10-08 02:22:00,53.2,49.5,29.71,SW,234,0.0,7.0,87,0.00,,,0.27,meteohub,2013-10-08 06:22:00,
2013-10-08 02:27:00,53.2,49.1,29.71,SW,232,1.0,7.0,86,0.00,,,0.27,meteohub,2013-10-08 06:27:00,
2013-10-08 02:32:00,53.1,48.9,29.71,WSW,244,2.0,8.0,86,0.00,,,0.27,meteohub,2013-10-08 06:32:00,
2013-10-08 02:37:00,53.2,48.9,29.71,WNW,284,1.0,8.0,85,0.00,,,0.27,meteohub,2013-10-08 06:37:00,
2013-10-08 02:42:00,53.1,48.9,29.71,WSW,246,3.0,10.0,86,0.00,,,0.27,meteohub,2013-10-08 06:42:00,
2013-10-08 02:47:00,53.1,48.9,29.70,West,269,0.0,10.0,86,0.00,,,0.27,meteohub,2013-10-08 06:47:00,
2013-10-08 02:52:00,52.9,48.7,29.71,SSW,198,0.0,8.0,86,0.00,,,0.27,meteohub,2013-10-08 06:52:00,
2013-10-08 02:57:00,52.9,49.1,29.71,WSW,240,0.0,8.0,87,0.00,,,0.27,meteohub,2013-10-08 06:57:00,
2013-10-08 03:02:00,52.3,48.6,29.71,SSW,192,0.0,7.0,87,0.00,,,0.27,meteohub,2013-10-08 07:02:00,
2013-10-08 03:08:00,52.3,48.9,29.71,South,171,3.0,7.0,88,0.00,,,0.27,meteohub,2013-10-08 07:08:00,
2013-10-08 03:13:00,52.2,48.4,29.71,ESE,111,2.0,10.0,87,0.00,,,0.27,meteohub,2013-10-08 07:13:00,
2013-10-08 03:18:00,52.3,48.2,29.71,SW,232,0.0,10.0,86,0.00,,,0.27,meteohub,2013-10-08 07:18:00,
2013-10-08 03:23:00,52.2,48.7,29.72,SSW,205,0.0,10.0,88,0.00,,,0.27,meteohub,2013-10-08 07:23:00,
2013-10-08 03:28:00,52.0,48.2,29.72,SSW,206,2.0,6.0,87,0.00,,,0.27,meteohub,2013-10-08 07:28:00,
2013-10-08 03:33:00,52.2,48.4,29.72,SW,219,3.0,7.0,87,0.00,,,0.27,meteohub,2013-10-08 07:33:00,
2013-10-08 03:38:00,52.2,48.4,29.71,SW,220,1.0,7.0,87,0.00,,,0.27,meteohub,2013-10-08 07:38:00,
2013-10-08 03:43:00,52.2,48.4,29.71,SW,223,0.0,7.0,87,0.00,,,0.27,meteohub,2013-10-08 07:43:00,
2013-10-08 03:48:00,52.2,48.0,29.71,SSW,200,0.0,6.0,86,0.00,,,0.27,meteohub,2013-10-08 07:48:00,
2013-10-08 03:54:00,52.0,48.2,29.71,SSW,201,0.0,9.0,87,0.00,,,0.27,meteohub,2013-10-08 07:54:00,
2013-10-08 03:59:00,51.6,47.8,29.72,SSW,200,2.0,9.0,87,0.00,,,0.27,meteohub,2013-10-08 07:59:00,
2013-10-08 04:04:00,51.4,47.7,29.72,SW,223,1.0,9.0,87,0.00,,,0.27,meteohub,2013-10-08 08:04:00,
2013-10-08 04:09:00,51.1,47.7,29.72,SW,223,0.0,5.0,88,0.00,,,0.27,meteohub,2013-10-08 08:09:00,
2013-10-08 04:14:00,50.7,47.7,29.72,SSW,202,0.0,5.0,89,0.00,,,0.27,meteohub,2013-10-08 08:14:00,
2013-10-08 04:19:00,50.4,47.5,29.72,SSW,195,0.0,4.0,90,0.00,,,0.27,meteohub,2013-10-08 08:19:00,
2013-10-08 04:24:00,50.0,47.1,29.72,SW,224,1.0,4.0,90,0.00,,,0.27,meteohub,2013-10-08 08:24:00,
2013-10-08 04:29:00,49.8,47.3,29.72,SW,223,0.0,4.0,91,0.00,,,0.27,meteohub,2013-10-08 08:29:00,
2013-10-08 04:35:00,49.5,46.9,29.72,SW,227,0.0,4.0,91,0.00,,,0.27,meteohub,2013-10-08 08:35:00,
2013-10-08 04:40:00,49.3,47.1,29.73,SSW,212,0.0,3.0,92,0.00,,,0.27,meteohub,2013-10-08 08:40:00,
2013-10-08 04:45:00,49.3,47.1,29.73,South,185,1.0,5.0,92,0.00,,,0.27,meteohub,2013-10-08 08:45:00,
2013-10-08 04:50:00,49.6,47.1,29.73,WSW,244,7.0,7.0,91,0.00,,,0.27,meteohub,2013-10-08 08:50:00,
2013-10-08 04:55:00,50.5,47.5,29.74,South,189,0.0,10.0,89,0.00,,,0.27,meteohub,2013-10-08 08:55:00,
2013-10-08 05:00:00,50.7,47.7,29.74,SSW,192,0.0,10.0,89,0.00,,,0.27,meteohub,2013-10-08 09:00:00,
2013-10-08 05:05:00,50.9,47.5,29.74,SW,221,0.0,10.0,88,0.00,,,0.27,meteohub,2013-10-08 09:05:00,
2013-10-08 05:10:00,51.1,47.7,29.74,SW,226,0.0,7.0,88,0.00,,,0.27,meteohub,2013-10-08 09:10:00,
2013-10-08 05:16:00,51.1,47.7,29.75,SSW,210,0.0,7.0,88,0.00,,,0.27,meteohub,2013-10-08 09:16:00,
2013-10-08 05:21:00,50.9,47.5,29.75,SSW,211,0.0,3.0,88,0.00,,,0.27,meteohub,2013-10-08 09:21:00,
2013-10-08 05:26:00,51.1,47.3,29.75,WSW,248,0.0,3.0,87,0.00,,,0.27,meteohub,2013-10-08 09:26:00,
2013-10-08 05:31:00,51.3,46.9,29.75,SW,231,5.0,7.0,85,0.00,,,0.27,meteohub,2013-10-08 09:31:00,
2013-10-08 05:36:00,51.6,46.9,29.75,SE,136,0.0,9.0,84,0.00,,,0.27,meteohub,2013-10-08 09:36:00,
2013-10-08 05:42:00,52.0,46.6,29.75,SW,227,0.0,10.0,82,0.00,,,0.27,meteohub,2013-10-08 09:42:00,
2013-10-08 05:47:00,52.0,46.9,29.75,SSW,203,6.0,10.0,83,0.00,,,0.27,meteohub,2013-10-08 09:47:00,
2013-10-08 05:52:00,52.2,46.8,29.75,SW,230,3.0,10.0,82,0.00,,,0.27,meteohub,2013-10-08 09:52:00,
2013-10-08 05:57:00,52.0,46.6,29.75,WNW,288,1.0,9.0,82,0.00,,,0.27,meteohub,2013-10-08 09:57:00,
2013-10-08 06:02:00,52.0,46.6,29.76,WSW,243,3.0,9.0,82,0.00,,,0.27,meteohub,2013-10-08 10:02:00,
2013-10-08 06:07:00,52.0,46.4,29.76,WSW,237,2.0,11.0,81,0.00,,,0.27,meteohub,2013-10-08 10:07:00,
2013-10-08 06:12:00,52.0,46.4,29.77,WNW,293,3.0,12.0,81,0.00,,,0.27,meteohub,2013-10-08 10:12:00,
2013-10-08 06:17:00,52.2,46.6,29.77,SSE,164,1.0,12.0,81,0.00,,,0.27,meteohub,2013-10-08 10:17:00,
2013-10-08 06:22:00,52.2,46.6,29.77,SW,231,4.0,12.0,81,0.00,,,0.27,meteohub,2013-10-08 10:22:00,
2013-10-08 06:27:00,52.0,46.0,29.77,SW,216,1.0,11.0,80,0.00,,,0.27,meteohub,2013-10-08 10:27:00,
2013-10-08 06:32:00,51.6,46.0,29.78,WNW,282,4.0,11.0,81,0.00,,,0.27,meteohub,2013-10-08 10:32:00,
2013-10-08 06:37:00,51.4,45.9,29.79,West,263,0.0,9.0,81,0.00,,,0.27,meteohub,2013-10-08 10:37:00,
2013-10-08 06:42:00,51.4,45.9,29.79,West,275,0.0,9.0,81,0.00,,,0.27,meteohub,2013-10-08 10:42:00,
2013-10-08 06:47:00,51.3,45.7,29.80,NNW,336,4.0,9.0,81,0.00,,,0.27,meteohub,2013-10-08 10:47:00,
2013-10-08 06:52:00,51.1,44.4,29.80,West,265,7.0,14.0,78,0.00,,,0.27,meteohub,2013-10-08 10:52:00,
2013-10-08 06:57:00,50.7,44.1,29.81,North,0,0.0,14.0,78,0.00,,,0.27,meteohub,2013-10-08 10:57:00,
2013-10-08 07:02:00,50.5,43.9,29.81,WNW,302,0.0,13.0,78,0.00,,,0.27,meteohub,2013-10-08 11:02:00,
2013-10-08 07:07:00,50.4,44.1,29.83,SSW,200,0.0,13.0,79,0.00,,,0.27,meteohub,2013-10-08 11:07:00,
2013-10-08 07:12:00,50.2,43.9,29.83,NE,56,2.0,10.0,79,0.00,,,0.27,meteohub,2013-10-08 11:12:00,
2013-10-08 07:17:00,50.2,44.2,29.83,NNW,348,0.0,7.0,80,0.00,,,0.27,meteohub,2013-10-08 11:17:00,
2013-10-08 07:23:00,50.0,43.7,29.84,North,0,6.0,11.0,79,0.00,,,0.27,meteohub,2013-10-08 11:23:00,
2013-10-08 07:28:00,50.2,43.0,29.85,WNW,291,4.0,11.0,76,0.00,,,0.27,meteohub,2013-10-08 11:28:00,
2013-10-08 07:33:00,50.2,42.3,29.85,NNW,329,7.0,12.0,74,0.00,,,0.27,meteohub,2013-10-08 11:33:00,
2013-10-08 07:38:00,49.8,41.2,29.86,West,276,4.0,12.0,72,0.00,,,0.27,meteohub,2013-10-08 11:38:00,
2013-10-08 07:43:00,49.8,40.8,29.86,North,5,6.0,12.0,71,0.00,,,0.27,meteohub,2013-10-08 11:43:00,
2013-10-08 07:48:00,50.0,41.0,29.87,North,10,8.0,12.0,71,0.00,,,0.27,meteohub,2013-10-08 11:48:00,
2013-10-08 07:53:00,50.0,41.0,29.87,North,10,3.0,11.0,71,0.00,,,0.27,meteohub,2013-10-08 11:53:00,
2013-10-08 07:58:00,50.2,41.2,29.88,East,96,6.0,10.0,71,0.00,,,0.27,meteohub,2013-10-08 11:58:00,
2013-10-08 08:04:00,49.8,40.5,29.88,North,351,2.0,10.0,70,0.00,,,0.27,meteohub,2013-10-08 12:04:00,
2013-10-08 08:09:00,49.6,39.9,29.89,NNW,344,4.0,10.0,69,0.00,,,0.27,meteohub,2013-10-08 12:09:00,
2013-10-08 08:14:00,49.6,39.9,29.89,NNW,344,5.0,18.0,69,0.00,,,0.27,meteohub,2013-10-08 12:14:00,
2013-10-08 08:19:00,49.6,39.6,29.89,WNW,303,11.0,18.0,68,0.00,,,0.27,meteohub,2013-10-08 12:19:00,
2013-10-08 08:24:00,49.6,39.2,29.90,North,0,9.0,18.0,67,0.00,,,0.27,meteohub,2013-10-08 12:24:00,
2013-10-08 08:29:00,49.8,39.4,29.90,NNW,342,3.0,14.0,67,0.00,,,0.27,meteohub,2013-10-08 12:29:00,
2013-10-08 08:34:00,50.0,38.7,29.91,NNE,12,5.0,14.0,65,0.00,,,0.27,meteohub,2013-10-08 12:34:00,
2013-10-08 08:39:00,49.8,38.5,29.91,NE,55,2.0,13.0,65,0.00,,,0.27,meteohub,2013-10-08 12:39:00,
2013-10-08 08:45:00,49.6,38.3,29.92,ENE,65,1.0,13.0,65,0.00,,,0.27,meteohub,2013-10-08 12:45:00,
2013-10-08 08:50:00,49.5,38.1,29.92,NW,321,7.0,13.0,65,0.00,,,0.27,meteohub,2013-10-08 12:50:00,
2013-10-08 08:55:00,49.5,38.1,29.92,WNW,298,5.0,14.0,65,0.00,,,0.27,meteohub,2013-10-08 12:55:00,
2013-10-08 09:00:00,49.5,38.7,29.92,North,11,0.0,14.0,66,0.00,,,0.27,meteohub,2013-10-08 13:00:00,
2013-10-08 09:05:00,49.6,38.3,29.93,West,267,6.0,14.0,65,0.00,,,0.27,meteohub,2013-10-08 13:05:00,
2013-10-08 09:10:00,49.6,37.9,29.94,West,260,3.0,15.0,64,0.00,,,0.27,meteohub,2013-10-08 13:10:00,
2013-10-08 09:15:00,49.6,38.3,29.94,West,273,3.0,15.0,65,0.00,,,0.27,meteohub,2013-10-08 13:15:00,
2013-10-08 09:21:00,49.6,38.3,29.94,SW,227,9.0,15.0,65,0.00,,,0.27,meteohub,2013-10-08 13:21:00,
2013-10-08 09:26:00,49.8,38.1,29.94,North,355,3.0,16.0,64,0.00,,,0.27,meteohub,2013-10-08 13:26:00,
2013-10-08 09:31:00,50.2,37.2,29.95,NW,319,18.0,18.0,61,0.00,,,0.27,meteohub,2013-10-08 13:31:00,
2013-10-08 09:36:00,49.8,37.4,29.94,NNE,19,6.0,20.0,62,0.01,,,0.28,meteohub,2013-10-08 13:36:00,
2013-10-08 09:41:00,50.0,37.6,29.95,North,9,3.0,20.0,62,0.01,,,0.28,meteohub,2013-10-08 13:41:00,
2013-10-08 09:46:00,50.5,37.6,29.95,WNW,302,12.0,20.0,61,0.01,,,0.28,meteohub,2013-10-08 13:46:00,
2013-10-08 09:51:00,50.7,36.9,29.96,NE,42,1.0,17.0,59,0.01,,,0.28,meteohub,2013-10-08 13:51:00,
2013-10-08 09:56:00,50.7,37.4,29.96,NE,34,0.0,16.0,60,0.01,,,0.28,meteohub,2013-10-08 13:56:00,
2013-10-08 10:02:00,50.5,36.7,29.96,WNW,284,6.0,16.0,59,0.01,,,0.28,meteohub,2013-10-08 14:02:00,
2013-10-08 10:07:00,50.4,36.1,29.97,NW,315,7.0,14.0,58,0.01,,,0.28,meteohub,2013-10-08 14:07:00,
2013-10-08 10:12:00,50.4,35.2,29.97,NW,319,11.0,20.0,56,0.01,,,0.28,meteohub,2013-10-08 14:12:00,
2013-10-08 10:17:00,50.5,35.4,29.97,WNW,293,1.0,20.0,56,0.01,,,0.28,meteohub,2013-10-08 14:17:00,
2013-10-08 10:22:00,50.9,35.2,29.97,NNE,13,10.0,24.0,55,0.01,,,0.28,meteohub,2013-10-08 14:22:00,
2013-10-08 10:27:00,51.3,36.5,29.97,South,188,1.0,24.0,57,0.01,,,0.28,meteohub,2013-10-08 14:27:00,
2013-10-08 10:32:00,51.4,36.3,29.98,West,268,1.0,19.0,56,0.00,,,0.28,meteohub,2013-10-08 14:32:00,
2013-10-08 10:37:00,51.4,35.8,29.98,West,265,4.0,15.0,55,0.00,,,0.28,meteohub,2013-10-08 14:37:00,
2013-10-08 10:42:00,51.4,35.4,29.98,West,275,5.0,16.0,54,0.00,,,0.28,meteohub,2013-10-08 14:42:00,
2013-10-08 10:47:00,52.0,36.3,29.98,NNW,348,1.0,17.0,55,0.00,,,0.28,meteohub,2013-10-08 14:47:00,
2013-10-08 10:52:00,52.0,35.8,29.99,NE,41,4.0,17.0,54,0.00,,,0.28,meteohub,2013-10-08 14:52:00,
2013-10-08 10:57:00,52.0,35.8,29.99,NNE,27,4.0,17.0,54,0.00,,,0.28,meteohub,2013-10-08 14:57:00,
2013-10-08 11:02:00,51.6,35.6,29.99,North,0,8.0,16.0,54,0.00,,,0.28,meteohub,2013-10-08 15:02:00,
2013-10-08 11:07:00,52.0,37.2,30.00,NNE,19,10.0,16.0,57,0.00,,,0.28,meteohub,2013-10-08 15:07:00,
2013-10-08 11:12:00,51.8,35.2,30.01,West,279,3.0,13.0,53,0.00,,,0.28,meteohub,2013-10-08 15:12:00,
2013-10-08 11:17:00,51.4,35.4,30.01,NW,316,0.0,15.0,54,0.00,,,0.28,meteohub,2013-10-08 15:17:00,
2013-10-08 11:22:00,52.2,36.0,30.01,NNW,336,6.0,15.0,54,0.00,,,0.28,meteohub,2013-10-08 15:22:00,
2013-10-08 11:28:00,52.9,35.8,30.01,NW,304,2.0,13.0,52,0.00,,,0.28,meteohub,2013-10-08 15:28:00,
2013-10-08 11:33:00,53.1,36.0,30.01,WNW,295,7.0,13.0,52,0.00,,,0.28,meteohub,2013-10-08 15:33:00,
2013-10-08 11:38:00,53.1,36.0,30.02,West,271,7.0,14.0,52,0.00,,,0.28,meteohub,2013-10-08 15:38:00,
2013-10-08 11:43:00,53.1,35.4,30.02,North,355,5.0,14.0,51,0.00,,,0.28,meteohub,2013-10-08 15:43:00,
2013-10-08 11:48:00,52.9,35.2,30.02,WNW,288,7.0,14.0,51,0.00,,,0.28,meteohub,2013-10-08 15:48:00,
2013-10-08 11:53:00,52.7,35.1,30.02,NNW,342,5.0,16.0,51,0.00,,,0.28,meteohub,2013-10-08 15:53:00,
2013-10-08 11:58:00,52.9,34.7,30.02,North,351,7.0,17.0,50,0.00,,,0.28,meteohub,2013-10-08 15:58:00,
2013-10-08 12:03:00,53.1,35.4,30.02,North,5,9.0,17.0,51,0.00,,,0.28,meteohub,2013-10-08 16:03:00,
2013-10-08 12:09:00,53.2,35.6,30.02,North,0,7.0,17.0,51,0.00,,,0.28,meteohub,2013-10-08 16:09:00,
2013-10-08 12:14:00,53.2,35.6,30.02,NNW,346,6.0,16.0,51,0.00,,,0.28,meteohub,2013-10-08 16:14:00,
2013-10-08 12:19:00,53.1,36.0,30.03,WNW,301,8.0,16.0,52,0.00,,,0.28,meteohub,2013-10-08 16:19:00,
2013-10-08 12:24:00,53.6,36.9,30.03,North,5,12.0,16.0,53,0.00,,,0.28,meteohub,2013-10-08 16:24:00,
2013-10-08 12:29:00,53.4,35.2,30.03,North,0,8.0,16.0,50,0.00,,,0.28,meteohub,2013-10-08 16:29:00,
2013-10-08 12:34:00,53.2,35.1,30.04,North,351,8.0,15.0,50,0.00,,,0.28,meteohub,2013-10-08 16:34:00,
2013-10-08 12:39:00,53.2,35.1,30.04,NNW,340,0.0,16.0,50,0.00,,,0.28,meteohub,2013-10-08 16:39:00,
2013-10-08 12:44:00,54.0,35.8,30.04,WNW,298,8.0,16.0,50,0.00,,,0.28,meteohub,2013-10-08 16:44:00,
2013-10-08 12:50:00,54.0,35.2,30.04,WNW,285,8.0,15.0,49,0.00,,,0.28,meteohub,2013-10-08 16:50:00,
2013-10-08 12:55:00,53.4,34.7,30.04,West,274,1.0,14.0,49,0.00,,,0.28,meteohub,2013-10-08 16:55:00,
2013-10-08 13:00:00,53.8,35.1,30.04,WNW,294,4.0,16.0,49,0.00,,,0.28,meteohub,2013-10-08 17:00:00,
2013-10-08 13:05:00,53.8,35.1,30.04,WSW,257,2.0,16.0,49,0.00,,,0.28,meteohub,2013-10-08 17:05:00,
2013-10-08 13:10:00,54.1,36.0,30.04,WNW,291,0.0,16.0,50,0.00,,,0.28,meteohub,2013-10-08 17:10:00,
2013-10-08 13:15:00,54.3,36.5,30.04,West,271,2.0,16.0,51,0.00,,,0.28,meteohub,2013-10-08 17:15:00,
2013-10-08 13:20:00,54.7,35.4,30.04,ENE,78,3.0,15.0,48,0.00,,,0.28,meteohub,2013-10-08 17:20:00,
2013-10-08 13:25:00,54.5,36.3,30.05,North,0,10.0,24.0,50,0.00,,,0.28,meteohub,2013-10-08 17:25:00,
2013-10-08 13:31:00,54.7,36.0,30.05,NNE,26,5.0,24.0,49,0.00,,,0.28,meteohub,2013-10-08 17:31:00,
2013-10-08 13:36:00,54.9,36.5,30.05,West,263,5.0,24.0,50,0.00,,,0.28,meteohub,2013-10-08 17:36:00,
2013-10-08 13:41:00,54.7,34.9,30.05,North,5,6.0,13.0,47,0.00,,,0.28,meteohub,2013-10-08 17:41:00,
2013-10-08 13:46:00,54.7,36.3,30.06,WNW,292,7.0,13.0,50,0.00,,,0.28,meteohub,2013-10-08 17:46:00,
2013-10-08 13:51:00,54.9,35.6,30.06,WSW,249,1.0,13.0,48,0.00,,,0.28,meteohub,2013-10-08 17:51:00,
2013-10-08 13:56:00,55.0,35.8,30.06,West,278,6.0,15.0,48,0.00,,,0.28,meteohub,2013-10-08 17:56:00,
2013-10-08 14:01:00,55.0,35.8,30.07,NW,317,7.0,15.0,48,0.00,,,0.28,meteohub,2013-10-08 18:01:00,
2013-10-08 14:06:00,55.6,35.6,30.07,NNW,348,8.0,15.0,47,0.00,,,0.28,meteohub,2013-10-08 18:06:00,
2013-10-08 14:12:00,55.6,35.6,30.08,North,5,2.0,14.0,47,0.00,,,0.28,meteohub,2013-10-08 18:12:00,
2013-10-08 14:17:00,55.0,35.2,30.07,ENE,78,0.0,14.0,47,0.00,,,0.28,meteohub,2013-10-08 18:17:00,
2013-10-08 14:22:00,54.7,35.4,30.08,North,9,5.0,15.0,48,0.00,,,0.28,meteohub,2013-10-08 18:22:00,
2013-10-08 14:27:00,54.9,35.1,30.08,North,355,4.0,15.0,47,0.00,,,0.28,meteohub,2013-10-08 18:27:00,
2013-10-08 14:32:00,54.5,33.6,30.09,North,0,5.0,15.0,45,0.00,,,0.28,meteohub,2013-10-08 18:32:00,
2013-10-08 14:37:00,53.8,34.0,30.09,North,5,6.0,14.0,47,0.00,,,0.28,meteohub,2013-10-08 18:37:00,
2013-10-08 14:42:00,53.4,34.2,30.09,NNE,24,3.0,14.0,48,0.00,,,0.28,meteohub,2013-10-08 18:42:00,
2013-10-08 14:47:00,53.8,34.0,30.09,North,11,4.0,14.0,47,0.00,,,0.28,meteohub,2013-10-08 18:47:00,
2013-10-08 14:52:00,53.8,34.0,30.09,NNW,347,0.0,14.0,47,0.00,,,0.28,meteohub,2013-10-08 18:52:00,
2013-10-08 14:57:00,54.3,35.1,30.10,WNW,300,0.0,15.0,48,0.00,,,0.28,meteohub,2013-10-08 18:57:00,
2013-10-08 15:02:00,54.7,33.8,30.10,West,268,2.0,15.0,45,0.00,,,0.28,meteohub,2013-10-08 19:02:00,
2013-10-08 15:07:00,54.3,34.0,30.10,North,355,3.0,15.0,46,0.00,,,0.28,meteohub,2013-10-08 19:07:00,
2013-10-08 15:12:00,53.8,34.0,30.10,West,268,3.0,12.0,47,0.00,,,0.28,meteohub,2013-10-08 19:12:00,
2013-10-08 15:17:00,53.6,34.3,30.11,South,187,0.0,12.0,48,0.00,,,0.28,meteohub,2013-10-08 19:17:00,
2013-10-08 15:22:00,53.2,34.5,30.11,WNW,298,8.0,12.0,49,0.00,,,0.28,meteohub,2013-10-08 19:22:00,
2013-10-08 15:27:00,53.2,35.1,30.11,NE,34,1.0,11.0,50,0.00,,,0.28,meteohub,2013-10-08 19:27:00,
2013-10-08 15:32:00,53.4,34.2,30.11,NNE,26,4.0,8.0,48,0.00,,,0.28,meteohub,2013-10-08 19:32:00,
2013-10-08 15:37:00,53.6,34.3,30.11,NNW,329,1.0,8.0,48,0.00,,,0.28,meteohub,2013-10-08 19:37:00,
2013-10-08 15:42:00,53.8,34.5,30.12,NNE,24,5.0,10.0,48,0.00,,,0.28,meteohub,2013-10-08 19:42:00,
2013-10-08 15:47:00,54.1,34.9,30.12,NNW,344,1.0,12.0,48,0.00,,,0.28,meteohub,2013-10-08 19:47:00,
2013-10-08 15:53:00,54.9,35.1,30.12,West,272,7.0,12.0,47,0.00,,,0.28,meteohub,2013-10-08 19:53:00,
2013-10-08 15:58:00,54.9,34.5,30.12,NW,304,0.0,11.0,46,0.00,,,0.28,meteohub,2013-10-08 19:58:00,
2013-10-08 16:03:00,54.9,35.1,30.12,West,272,2.0,11.0,47,0.00,,,0.28,meteohub,2013-10-08 20:03:00,
2013-10-08 16:08:00,54.9,34.5,30.12,NNW,327,1.0,11.0,46,0.00,,,0.28,meteohub,2013-10-08 20:08:00,
2013-10-08 16:13:00,54.7,35.4,30.13,WNW,288,0.0,11.0,48,0.00,,,0.28,meteohub,2013-10-08 20:13:00,
2013-10-08 16:18:00,54.7,34.9,30.13,NNE,26,1.0,11.0,47,0.00,,,0.28,meteohub,2013-10-08 20:18:00,
2013-10-08 16:23:00,54.7,35.4,30.13,WNW,291,0.0,8.0,48,0.00,,,0.28,meteohub,2013-10-08 20:23:00,
2013-10-08 16:29:00,54.7,35.4,30.13,NW,315,0.0,8.0,48,0.00,,,0.28,meteohub,2013-10-08 20:29:00,
2013-10-08 16:34:00,54.7,36.0,30.14,West,269,0.0,7.0,49,0.00,,,0.28,meteohub,2013-10-08 20:34:00,
2013-10-08 16:39:00,54.7,35.4,30.14,WSW,243,3.0,8.0,48,0.00,,,0.28,meteohub,2013-10-08 20:39:00,
2013-10-08 16:44:00,54.5,35.2,30.14,NW,313,7.0,8.0,48,0.00,,,0.28,meteohub,2013-10-08 20:44:00,
2013-10-08 16:49:00,54.1,36.0,30.14,NW,304,4.0,10.0,50,0.00,,,0.28,meteohub,2013-10-08 20:49:00,
2013-10-08 16:54:00,54.0,36.3,30.14,NW,314,3.0,10.0,51,0.00,,,0.28,meteohub,2013-10-08 20:54:00,
2013-10-08 16:59:00,53.6,35.4,30.14,NNW,329,2.0,10.0,50,0.00,,,0.28,meteohub,2013-10-08 20:59:00,
2013-10-08 17:04:00,53.4,36.3,30.14,NE,36,1.0,8.0,52,0.00,,,0.28,meteohub,2013-10-08 21:04:00,
2013-10-08 17:09:00,53.4,35.8,30.15,WNW,290,2.0,8.0,51,0.00,,,0.28,meteohub,2013-10-08 21:09:00,
2013-10-08 17:15:00,53.2,36.5,30.15,WNW,288,1.0,8.0,53,0.00,,,0.28,meteohub,2013-10-08 21:15:00,
2013-10-08 17:20:00,53.2,36.5,30.15,WNW,288,4.0,6.0,53,0.00,,,0.28,meteohub,2013-10-08 21:20:00,
2013-10-08 17:25:00,53.1,36.3,30.15,West,273,0.0,10.0,53,0.00,,,0.28,meteohub,2013-10-08 21:25:00,
2013-10-08 17:30:00,52.9,36.1,30.16,NW,306,0.0,10.0,53,0.00,,,0.28,meteohub,2013-10-08 21:30:00,
2013-10-08 17:35:00,52.7,36.5,30.16,NW,315,0.0,9.0,54,0.00,,,0.28,meteohub,2013-10-08 21:35:00,
2013-10-08 17:40:00,52.3,36.1,30.16,WNW,284,0.0,5.0,54,0.00,,,0.28,meteohub,2013-10-08 21:40:00,
2013-10-08 17:45:00,52.2,36.0,30.17,West,281,2.0,5.0,54,0.00,,,0.28,meteohub,2013-10-08 21:45:00,
2013-10-08 17:51:00,52.0,35.8,30.17,NNW,341,3.0,8.0,54,0.00,,,0.28,meteohub,2013-10-08 21:51:00,
2013-10-08 17:56:00,51.6,36.5,30.17,NNW,336,0.0,8.0,56,0.00,,,0.28,meteohub,2013-10-08 21:56:00,
2013-10-08 18:01:00,51.3,37.0,30.17,West,279,0.0,8.0,58,0.00,,,0.28,meteohub,2013-10-08 22:01:00,
2013-10-08 18:06:00,50.5,36.7,30.18,West,279,1.0,5.0,59,0.00,,,0.28,meteohub,2013-10-08 22:06:00,
2013-10-08 18:11:00,49.6,37.9,30.18,West,279,0.0,5.0,64,0.00,,,0.28,meteohub,2013-10-08 22:11:00,
2013-10-08 18:16:00,48.9,37.2,30.18,West,279,0.0,2.0,64,0.00,,,0.28,meteohub,2013-10-08 22:16:00,
2013-10-08 18:21:00,48.6,36.9,30.18,WNW,283,0.0,1.0,64,0.00,,,0.28,meteohub,2013-10-08 22:21:00,
2013-10-08 18:27:00,48.0,37.2,30.18,WNW,283,0.0,1.0,66,0.00,,,0.28,meteohub,2013-10-08 22:27:00,
2013-10-08 18:32:00,47.7,36.9,30.19,WNW,283,0.0,1.0,66,0.00,,,0.28,meteohub,2013-10-08 22:32:00,
2013-10-08 18:37:00,47.1,37.0,30.19,WNW,283,1.0,0.0,68,0.00,,,0.28,meteohub,2013-10-08 22:37:00,
2013-10-08 18:42:00,46.6,36.5,30.19,WNW,283,2.0,2.0,68,0.00,,,0.28,meteohub,2013-10-08 22:42:00,
2013-10-08 18:47:00,46.0,36.9,30.19,WNW,283,0.0,2.0,70,0.00,,,0.28,meteohub,2013-10-08 22:47:00,
2013-10-08 18:52:00,45.9,36.7,30.20,WNW,283,0.0,2.0,70,0.00,,,0.28,meteohub,2013-10-08 22:52:00,
2013-10-08 18:57:00,45.7,37.2,30.20,WNW,283,0.0,2.0,72,0.00,,,0.28,meteohub,2013-10-08 22:57:00,
2013-10-08 19:02:00,45.1,36.7,30.21,WNW,283,0.0,1.0,72,0.00,,,0.28,meteohub,2013-10-08 23:02:00,
2013-10-08 19:07:00,44.8,37.0,30.21,WNW,283,0.0,1.0,74,0.00,,,0.28,meteohub,2013-10-08 23:07:00,
2013-10-08 19:12:00,44.4,37.0,30.21,WNW,283,0.0,1.0,75,0.00,,,0.28,meteohub,2013-10-08 23:12:00,
2013-10-08 19:17:00,44.2,36.9,30.21,WNW,283,0.0,1.0,75,0.00,,,0.28,meteohub,2013-10-08 23:17:00,
2013-10-08 19:22:00,44.1,36.7,30.21,WNW,283,0.0,1.0,75,0.00,,,0.28,meteohub,2013-10-08 23:22:00,
2013-10-08 19:27:00,44.1,36.7,30.22,WNW,283,0.0,1.0,75,0.00,,,0.28,meteohub,2013-10-08 23:27:00,
2013-10-08 19:32:00,43.7,37.0,30.22,WNW,283,1.0,1.0,77,0.00,,,0.28,meteohub,2013-10-08 23:32:00,
2013-10-08 19:37:00,43.5,37.0,30.22,WNW,283,0.0,2.0,78,0.00,,,0.28,meteohub,2013-10-08 23:37:00,
2013-10-08 19:42:00,43.3,36.7,30.22,WNW,283,0.0,2.0,77,0.00,,,0.28,meteohub,2013-10-08 23:42:00,
2013-10-08 19:47:00,43.2,36.7,30.23,WNW,283,0.0,2.0,78,0.00,,,0.28,meteohub,2013-10-08 23:47:00,
2013-10-08 19:52:00,42.8,36.5,30.23,WNW,283,0.0,1.0,78,0.00,,,0.28,meteohub,2013-10-08 23:52:00,
2013-10-08 19:57:00,42.6,36.5,30.23,WNW,283,0.0,1.0,79,0.00,,,0.28,meteohub,2013-10-08 23:57:00,
2013-10-08 20:02:00,42.4,36.7,30.24,WNW,283,0.0,0.0,80,0.00,,,0.28,meteohub,2013-10-09 00:02:00,
2013-10-08 20:07:00,42.3,36.9,30.24,WNW,283,0.0,0.0,81,0.00,,,0.00,meteohub,2013-10-09 00:07:00,
2013-10-08 20:12:00,42.1,36.7,30.24,West,281,0.0,0.0,81,0.00,,,0.00,meteohub,2013-10-09 00:12:00,
2013-10-08 20:17:00,41.7,36.3,30.25,West,281,0.0,1.0,81,0.00,,,0.00,meteohub,2013-10-09 00:17:00,
2013-10-08 20:22:00,41.5,36.1,30.25,West,281,0.0,1.0,81,0.00,,,0.00,meteohub,2013-10-09 00:22:00,
2013-10-08 20:27:00,41.5,36.5,30.25,West,281,0.0,1.0,82,0.00,,,0.00,meteohub,2013-10-09 00:27:00,
2013-10-08 20:32:00,41.4,36.3,30.25,West,281,0.0,1.0,82,0.00,,,0.00,meteohub,2013-10-09 00:32:00,
2013-10-08 20:37:00,41.2,36.5,30.25,West,281,0.0,1.0,83,0.00,,,0.00,meteohub,2013-10-09 00:37:00,
2013-10-08 20:43:00,40.8,36.1,30.26,West,281,0.0,1.0,83,0.00,,,0.00,meteohub,2013-10-09 00:43:00,
2013-10-08 20:48:00,40.6,36.1,30.26,West,281,0.0,0.0,84,0.00,,,0.00,meteohub,2013-10-09 00:48:00,
2013-10-08 20:53:00,40.5,36.0,30.26,West,281,0.0,0.0,84,0.00,,,0.00,meteohub,2013-10-09 00:53:00,
2013-10-08 20:58:00,40.3,36.1,30.27,West,281,0.0,0.0,85,0.00,,,0.00,meteohub,2013-10-09 00:58:00,
2013-10-08 21:03:00,39.9,35.8,30.27,West,281,0.0,2.0,85,0.00,,,0.00,meteohub,2013-10-09 01:03:00,
2013-10-08 21:08:00,39.7,35.6,30.27,West,281,0.0,2.0,85,0.00,,,0.00,meteohub,2013-10-09 01:08:00,
2013-10-08 21:13:00,39.6,35.8,30.27,West,281,0.0,2.0,86,0.00,,,0.00,meteohub,2013-10-09 01:13:00,
2013-10-08 21:18:00,39.4,35.8,30.27,West,281,0.0,0.0,87,0.00,,,0.00,meteohub,2013-10-09 01:18:00,
2013-10-08 21:24:00,39.2,35.6,30.27,West,281,0.0,0.0,87,0.00,,,0.00,meteohub,2013-10-09 01:24:00,
2013-10-08 21:29:00,39.0,35.4,30.27,West,281,0.0,0.0,87,0.00,,,0.00,meteohub,2013-10-09 01:29:00,
2013-10-08 21:34:00,39.0,35.4,30.28,West,281,1.0,0.0,87,0.00,,,0.00,meteohub,2013-10-09 01:34:00,
2013-10-08 21:39:00,39.0,35.4,30.28,West,281,0.0,0.0,87,0.00,,,0.00,meteohub,2013-10-09 01:39:00,
2013-10-08 21:44:00,39.0,35.4,30.28,West,281,0.0,2.0,87,0.00,,,0.00,meteohub,2013-10-09 01:44:00,
2013-10-08 21:49:00,38.8,35.6,30.28,West,281,0.0,2.0,88,0.00,,,0.00,meteohub,2013-10-09 01:49:00,
2013-10-08 21:54:00,38.7,35.4,30.28,West,281,0.0,1.0,88,0.00,,,0.00,meteohub,2013-10-09 01:54:00,
2013-10-08 21:59:00,38.5,35.2,30.28,WNW,290,2.0,0.0,88,0.00,,,0.00,meteohub,2013-10-09 01:59:00,
2013-10-08 22:05:00,38.7,35.4,30.29,North,355,0.0,2.0,88,0.00,,,0.00,meteohub,2013-10-09 02:05:00,
2013-10-08 22:10:00,38.5,35.2,30.29,North,355,0.0,2.0,88,0.00,,,0.00,meteohub,2013-10-09 02:10:00,
2013-10-08 22:15:00,38.3,35.4,30.29,North,355,0.0,1.0,89,0.00,,,0.00,meteohub,2013-10-09 02:15:00,
2013-10-08 22:20:00,38.3,35.4,30.28,North,355,0.0,1.0,89,0.00,,,0.00,meteohub,2013-10-09 02:20:00,
2013-10-08 22:25:00,38.1,34.9,30.28,North,355,0.0,1.0,88,0.00,,,0.00,meteohub,2013-10-09 02:25:00,
2013-10-08 22:30:00,37.9,35.1,30.28,North,355,0.0,0.0,89,0.00,,,0.00,meteohub,2013-10-09 02:30:00,
2013-10-08 22:35:00,37.8,34.9,30.29,North,355,0.0,0.0,89,0.00,,,0.00,meteohub,2013-10-09 02:35:00,
2013-10-08 22:41:00,37.6,34.9,30.29,North,355,0.0,0.0,90,0.00,,,0.00,meteohub,2013-10-09 02:41:00,
2013-10-08 22:46:00,37.4,34.7,30.29,North,355,0.0,1.0,90,0.00,,,0.00,meteohub,2013-10-09 02:46:00,
2013-10-08 22:51:00,37.2,34.5,30.29,North,355,0.0,1.0,90,0.00,,,0.00,meteohub,2013-10-09 02:51:00,
2013-10-08 22:56:00,37.0,34.3,30.29,North,355,0.0,1.0,90,0.00,,,0.00,meteohub,2013-10-09 02:56:00,
2013-10-08 23:01:00,36.9,34.5,30.29,North,355,0.0,0.0,91,0.00,,,0.00,meteohub,2013-10-09 03:01:00,
2013-10-08 23:06:00,36.7,34.3,30.30,North,355,0.0,0.0,91,0.00,,,0.00,meteohub,2013-10-09 03:06:00,
2013-10-08 23:11:00,36.7,34.3,30.30,North,355,0.0,1.0,91,0.00,,,0.00,meteohub,2013-10-09 03:11:00,
2013-10-08 23:16:00,36.5,34.3,30.30,North,355,0.0,1.0,92,0.00,,,0.00,meteohub,2013-10-09 03:16:00,
2013-10-08 23:21:00,36.5,34.3,30.30,North,355,0.0,1.0,92,0.00,,,0.00,meteohub,2013-10-09 03:21:00,
2013-10-08 23:27:00,36.5,34.3,30.30,North,355,0.0,0.0,92,0.00,,,0.00,meteohub,2013-10-09 03:27:00,
2013-10-08 23:32:00,36.3,34.2,30.30,North,355,0.0,0.0,92,0.00,,,0.00,meteohub,2013-10-09 03:32:00,
2013-10-08 23:37:00,36.1,34.0,30.30,North,355,0.0,0.0,92,0.00,,,0.00,meteohub,2013-10-09 03:37:00,
2013-10-08 23:42:00,36.0,33.8,30.30,North,355,0.0,0.0,92,0.00,,,0.00,meteohub,2013-10-09 03:42:00,
2013-10-08 23:47:00,35.8,33.6,30.30,North,355,0.0,0.0,92,0.00,,,0.00,meteohub,2013-10-09 03:47:00,
2013-10-08 23:52:00,35.6,33.8,30.30,North,355,0.0,0.0,93,0.00,,,0.00,meteohub,2013-10-09 03:52:00,
2013-10-08 23:57:00,35.4,33.6,30.30,North,355,0.0,0.0,93,0.00,,,0.00,meteohub,2013-10-09 03:57:00,